[[{"header":{"parameterUnit":"m.s-1","parameterCategory":1,"la1":30.2991,"la2":30.254,"lo1":-89.0895,"lo2":-89.0444,"dy":0.0017,"dx":0.0017,"nx":28,"ny":28,"refTime":"2024-12-17T03:00:00:Z","depth":0,"parameterNumber":2,"parameterNumberName":"U-component_of_WINDS"},"data":[0,0,0,0,0,0,0,0,0,0,0,0,0,0,0,0,0,0,0,0,0,0,0,0,0,0,0,0,0,0,0,0,0,0,0,0,0,0,0,0,0,0,0,0,0,0,0,0,0,0,0,0,0,0,0,0,0,0,-0.4027,-0.4026,0,-0.3996,-0.3995,-0.3995,-0.3987,-0.3987,-0.3987,-0.3987,-0.3956,-0.3955,-0.3954,0,0,0,0,0,0,0,0,0,0,0,0,0,-0.408,-0.4079,-0.4027,-0.4026,-0.4026,-0.3996,-0.3995,-0.3995,-0.3987,-0.3987,-0.3987,-0.3987,-0.3956,-0.3955,-0.3954,0,0,0,0,0,0,0,0,0,0,0,0,0,-0.4054,-0.4078,-0.4027,-0.4018,-0.4017,-0.3996,-0.3995,-0.3995,-0.3987,-0.3987,-0.3987,-0.3987,-0.3956,-0.3955,-0.3954,-0.3939,0,0,-0.3949,-0.3948,0,0,0,0,0,0,0,0,-0.4055,-0.4052,-0.402,-0.4019,-0.4017,-0.3995,-0.4003,-0.3976,-0.3986,-0.3998,-0.3987,-0.3987,-0.3969,-0.3966,-0.396,-0.3938,-0.3936,-0.3949,-0.3948,-0.3947,-0.3947,0,0,0,0,0,0,0,-0.4057,-0.4053,-0.4014,-0.4019,-0.4018,-0.4016,-0.4013,-0.3998,-0.3982,-0.3997,-0.3996,-0.3993,-0.3968,-0.3961,-0.3959,-0.3936,-0.3949,-0.3948,-0.3947,-0.3946,-0.3902,-0.3902,0,0,0,0,0,0,-0.406,-0.4054,-0.4015,-0.4013,-0.4037,-0.4015,-0.4011,-0.4002,-0.3982,-0.398,-0.3993,-0.3993,-0.3964,-0.3961,-0.3958,-0.3941,-0.3947,-0.3946,-0.3945,-0.3902,-0.3902,-0.3902,0,0,0,0,0,0,-0.4061,-0.4057,-0.4017,-0.4034,-0.4029,-0.4014,-0.4004,-0.4001,-0.3995,-0.3979,-0.3976,-0.3988,-0.3964,-0.396,-0.3944,-0.394,-0.3945,-0.3944,-0.3903,-0.3902,-0.3902,-0.3906,0,0,0,0,0,0,-0.4063,-0.4057,-0.4051,-0.4034,-0.4028,-0.4003,-0.4003,-0.4001,-0.3992,-0.3992,-0.3974,-0.3972,-0.3964,-0.3947,-0.3943,-0.3938,-0.3943,-0.3903,-0.3903,-0.3902,-0.3906,-0.3905,-0.3905,0,0,0,0,0,-0.4065,-0.4053,-0.4051,-0.4046,-0.402,-0.4003,-0.3999,-0.399,-0.3992,-0.3986,-0.3976,-0.3972,-0.3941,-0.3945,-0.3941,-0.3935,-0.3903,-0.3903,-0.3902,-0.3906,-0.3905,-0.3905,0,0,0,0,0,0,-0.4069,-0.405,-0.4048,-0.403,-0.4018,-0.4001,-0.3993,-0.399,-0.3977,-0.3977,-0.3967,-0.3963,-0.3948,-0.394,-0.3945,-0.3921,-0.3922,-0.3921,-0.3927,-0.3926,-0.3926,-0.3928,-0.3941,0,0,0,0,0,-0.4068,-0.4055,-0.404,-0.4026,-0.402,-0.4008,-0.4,-0.3994,-0.3982,-0.3976,-0.3966,-0.3954,-0.3941,-0.3933,-0.3921,-0.3905,-0.3902,-0.3899,-0.3899,-0.3899,-0.3897,-0.389,-0.3889,-0.39,-0.39,-0.39,0,0,-0.4065,-0.4054,-0.4046,-0.4026,-0.4016,-0.4004,-0.4003,-0.399,-0.3981,-0.3974,-0.3959,-0.3951,-0.3937,-0.3922,-0.3914,-0.3915,-0.3894,-0.3898,-0.3898,-0.3896,-0.3889,-0.3888,-0.3887,-0.3899,-0.39,-0.39,0,0,-0.4055,-0.4044,-0.4032,-0.4022,-0.4008,-0.4,-0.3998,-0.3982,-0.3976,-0.3961,-0.3956,-0.3946,-0.3924,-0.3915,-0.3908,-0.3896,-0.3893,-0.3893,-0.389,-0.3883,-0.3882,-0.3881,-0.3878,-0.3877,-0.3891,-0.3891,-0.3891,0,-0.4053,-0.4034,-0.4026,-0.4014,-0.4005,-0.3999,-0.3988,-0.3979,-0.3961,-0.3956,-0.3957,-0.3931,-0.3921,-0.3904,-0.3901,-0.3895,-0.3893,-0.3894,-0.3883,-0.3882,-0.3881,-0.3878,-0.3877,-0.3892,-0.3892,-0.3892,-0.3892,0,-0.4034,-0.4022,-0.4013,-0.3997,-0.3988,-0.3976,-0.3966,-0.3959,-0.3954,-0.3947,-0.3932,-0.3921,-0.3907,-0.3902,-0.3898,-0.3885,-0.3886,-0.3885,-0.3886,-0.388,-0.3877,-0.3876,-0.3892,-0.3892,-0.3892,-0.3892,0,0,-0.4023,-0.4004,-0.4001,-0.3995,-0.398,-0.397,-0.3958,-0.3945,-0.3939,-0.3928,-0.3918,-0.3901,-0.3901,-0.3892,-0.3887,-0.3881,-0.3874,-0.3881,-0.388,-0.388,-0.3861,-0.3862,-0.386,-0.3872,-0.3872,-0.3871,-0.3862,0,-0.4011,-0.399,-0.3983,-0.3966,-0.3955,-0.395,-0.394,-0.393,-0.3924,-0.3914,-0.3907,-0.3895,-0.3895,-0.389,-0.3884,-0.3876,-0.387,-0.3877,-0.3864,-0.3863,-0.3867,-0.3859,-0.3859,-0.3851,-0.3861,-0.3861,-0.3861,0,-0.3994,-0.3983,-0.3965,-0.3953,-0.3948,-0.3939,-0.3927,-0.3918,-0.3907,-0.3903,-0.3895,-0.389,-0.3879,-0.3881,-0.3866,-0.3871,-0.3866,-0.3861,-0.3861,-0.3859,-0.3861,-0.3857,-0.3848,-0.3847,-0.3858,-0.3859,-0.3859,0,-0.3989,-0.397,-0.3957,-0.3951,-0.3936,-0.3931,-0.3924,-0.3914,-0.3907,-0.3897,-0.3893,-0.3881,-0.3875,-0.3867,-0.386,-0.3862,-0.3846,-0.3847,-0.3843,-0.3843,-0.3839,-0.3839,-0.3829,-0.3836,-0.3836,-0.3836,-0.3836,0,-0.3976,-0.3965,-0.3955,-0.3947,-0.3935,-0.3928,-0.3917,-0.391,-0.3901,-0.3893,-0.3888,-0.388,-0.3871,-0.3862,-0.3857,-0.3846,-0.3843,-0.384,-0.3839,-0.384,-0.3841,-0.3836,-0.3837,-0.3835,-0.3835,-0.3835,-0.3835,0,-0.3968,-0.396,-0.3946,-0.3934,-0.3931,-0.3923,-0.3913,-0.3906,-0.39,-0.3889,-0.3886,-0.3876,-0.3866,-0.3859,-0.3845,-0.3842,-0.383,-0.3829,-0.3834,-0.3833,-0.3829,-0.383,-0.3816,-0.3814,-0.3821,-0.3821,-0.3821,0,-0.396,-0.3952,-0.3939,-0.3933,-0.3927,-0.3918,-0.3911,-0.3904,-0.3897,-0.3886,-0.388,-0.387,-0.3861,-0.3845,-0.3837,-0.3827,-0.3825,-0.3821,-0.3824,-0.3826,-0.3826,-0.3826,-0.3826,-0.3821,-0.3821,-0.3821,-0.3821,0,-0.3947,-0.3945,-0.3935,-0.3925,-0.3917,-0.3909,-0.39,-0.3895,-0.3887,-0.388,-0.387,-0.3863,-0.385,-0.384,-0.383,-0.3824,-0.3821,-0.382,-0.3819,-0.382,-0.3824,-0.3822,-0.3833,-0.382,-0.382,-0.382,-0.382,-0.382,-0.3939,-0.3933,-0.3923,-0.3913,-0.3907,-0.3899,-0.3892,-0.3886,-0.3877,-0.3866,-0.3863,-0.3852,-0.3844,-0.383,-0.3824,-0.3816,-0.3816,-0.3814,-0.3813,-0.3813,-0.3813,-0.3825,-0.3814,-0.3814,-0.3814,-0.3814,-0.3814,0,-0.3927,-0.3921,-0.3912,-0.3901,-0.3894,-0.3892,-0.3883,-0.3877,-0.3868,-0.386,-0.3852,-0.3841,-0.3832,-0.3824,-0.3815,-0.381,-0.3809,-0.3808,-0.3808,-0.3807,-0.3813,-0.3816,-0.3809,-0.3809,-0.3809,-0.3809,-0.3809,-0.3809,-0.3919,-0.3908,-0.3905,-0.3891,-0.3885,-0.3875,-0.387,-0.3864,-0.3858,-0.3845,-0.3838,-0.3833,-0.3826,-0.3816,-0.3808,-0.3806,-0.3803,-0.3802,-0.38,-0.3806,-0.3806,-0.3807,-0.3809,-0.3802,-0.3802,-0.3795,-0.3795,-0.3795]},{"header":{"parameterUnit":"m.s-1","parameterCategory":1,"la1":30.2991,"la2":30.254,"lo1":-89.0895,"lo2":-89.0444,"dy":0.0017,"dx":0.0017,"nx":28,"ny":28,"refTime":"2024-12-17T03:00:00:Z","depth":0,"parameterNumber":3,"parameterNumberName":"V-component_of_WINDS"},"data":[0,0,0,0,0,0,0,0,0,0,0,0,0,0,0,0,0,0,0,0,0,0,0,0,0,0,0,0,0,0,0,0,0,0,0,0,0,0,0,0,0,0,0,0,0,0,0,0,0,0,0,0,0,0,0,0,0,0,-1.6771,-1.6772,0,-1.683,-1.683,-1.6831,-1.6833,-1.6832,-1.6832,-1.6831,-1.6885,-1.6887,-1.689,0,0,0,0,0,0,0,0,0,0,0,0,0,-1.6654,-1.6657,-1.6771,-1.6772,-1.6773,-1.683,-1.683,-1.6831,-1.6833,-1.6832,-1.6831,-1.6831,-1.6885,-1.6887,-1.689,0,0,0,0,0,0,0,0,0,0,0,0,0,-1.6708,-1.6657,-1.6771,-1.6781,-1.6782,-1.6829,-1.683,-1.6831,-1.6833,-1.6832,-1.6831,-1.683,-1.6884,-1.6887,-1.689,-1.693,0,0,-1.69,-1.6901,0,0,0,0,0,0,0,0,-1.6705,-1.6712,-1.6778,-1.678,-1.6782,-1.6823,-1.6809,-1.6864,-1.6834,-1.6814,-1.6831,-1.683,-1.6865,-1.687,-1.6883,-1.6933,-1.6935,-1.69,-1.6902,-1.6903,-1.6904,0,0,0,0,0,0,0,-1.6701,-1.671,-1.6794,-1.6779,-1.6781,-1.678,-1.6786,-1.682,-1.6844,-1.6815,-1.6816,-1.6823,-1.6866,-1.688,-1.6884,-1.6936,-1.69,-1.6903,-1.6905,-1.6906,-1.702,-1.7021,0,0,0,0,0,0,-1.6697,-1.6707,-1.6792,-1.6796,-1.674,-1.6783,-1.679,-1.6811,-1.6844,-1.6848,-1.6824,-1.6823,-1.6875,-1.688,-1.6886,-1.6935,-1.6903,-1.6906,-1.6908,-1.7019,-1.7021,-1.7022,0,0,0,0,0,0,-1.6694,-1.6704,-1.679,-1.6752,-1.6762,-1.6786,-1.6809,-1.6812,-1.6827,-1.685,-1.6854,-1.6834,-1.6874,-1.6882,-1.6919,-1.6937,-1.6908,-1.691,-1.7018,-1.702,-1.7021,-1.7033,0,0,0,0,0,0,-1.6691,-1.6703,-1.6721,-1.6752,-1.6764,-1.6824,-1.681,-1.6814,-1.6833,-1.6832,-1.6861,-1.6865,-1.6874,-1.6915,-1.6923,-1.6941,-1.6913,-1.7016,-1.7019,-1.7021,-1.7031,-1.7035,-1.7038,0,0,0,0,0,-1.6687,-1.6721,-1.6721,-1.6732,-1.6787,-1.6825,-1.6832,-1.6844,-1.6834,-1.685,-1.6865,-1.6864,-1.6934,-1.6919,-1.6927,-1.6947,-1.7015,-1.7018,-1.702,-1.703,-1.7034,-1.7038,0,0,0,0,0,0,-1.6689,-1.6725,-1.6726,-1.6772,-1.6796,-1.6826,-1.6847,-1.6848,-1.6874,-1.6872,-1.6884,-1.689,-1.6928,-1.6941,-1.6923,-1.6987,-1.6973,-1.6977,-1.6977,-1.6982,-1.6985,-1.6981,-1.6916,0,0,0,0,0,-1.6695,-1.6726,-1.6754,-1.6792,-1.6804,-1.6823,-1.684,-1.6847,-1.6872,-1.6881,-1.6899,-1.6921,-1.6948,-1.6965,-1.6991,-1.7033,-1.7038,-1.705,-1.7054,-1.7057,-1.706,-1.7082,-1.7088,-1.703,-1.703,-1.703,0,0,-1.6708,-1.6731,-1.6749,-1.6793,-1.6812,-1.6841,-1.6832,-1.6863,-1.6884,-1.6885,-1.6923,-1.6936,-1.6961,-1.7001,-1.7019,-1.7013,-1.7077,-1.706,-1.7062,-1.7064,-1.7085,-1.7091,-1.7096,-1.7032,-1.7032,-1.7031,0,0,-1.6745,-1.6767,-1.68,-1.682,-1.6849,-1.6862,-1.687,-1.6899,-1.6909,-1.6947,-1.6948,-1.6972,-1.7018,-1.7036,-1.7051,-1.7094,-1.7093,-1.7102,-1.712,-1.7142,-1.7146,-1.715,-1.7165,-1.717,-1.7105,-1.7105,-1.7106,0,-1.6757,-1.6803,-1.6816,-1.6848,-1.6866,-1.687,-1.6903,-1.692,-1.6956,-1.6968,-1.6961,-1.7018,-1.7035,-1.7079,-1.7089,-1.7102,-1.711,-1.7099,-1.7145,-1.7149,-1.7153,-1.7167,-1.7173,-1.7106,-1.7106,-1.7106,-1.7106,0,-1.6815,-1.6847,-1.6869,-1.6906,-1.6927,-1.6959,-1.6975,-1.6994,-1.6998,-1.7011,-1.7048,-1.7069,-1.7099,-1.7109,-1.7113,-1.7153,-1.7148,-1.7143,-1.7129,-1.7159,-1.7172,-1.7178,-1.7108,-1.7107,-1.7107,-1.7107,0,0,-1.6857,-1.69,-1.6908,-1.6925,-1.6957,-1.6981,-1.7012,-1.7043,-1.7058,-1.7082,-1.7107,-1.7146,-1.7141,-1.7158,-1.7164,-1.7182,-1.7214,-1.7174,-1.7175,-1.7181,-1.7258,-1.7262,-1.7268,-1.7214,-1.7215,-1.7216,-1.7256,0,-1.6898,-1.6956,-1.6968,-1.7017,-1.7046,-1.7049,-1.7075,-1.7097,-1.7109,-1.7133,-1.7146,-1.7173,-1.7165,-1.7175,-1.7193,-1.7207,-1.723,-1.7204,-1.7236,-1.7237,-1.723,-1.7276,-1.728,-1.7318,-1.7261,-1.7262,-1.7263,0,-1.6955,-1.6982,-1.7034,-1.7063,-1.7075,-1.7099,-1.7128,-1.7151,-1.7175,-1.7182,-1.7201,-1.7205,-1.7235,-1.7219,-1.726,-1.7242,-1.7255,-1.7264,-1.7265,-1.7269,-1.7252,-1.728,-1.733,-1.7335,-1.7271,-1.7271,-1.727,0,-1.698,-1.7029,-1.7067,-1.7081,-1.7114,-1.7131,-1.7145,-1.7168,-1.7186,-1.721,-1.7221,-1.7247,-1.7262,-1.7281,-1.7291,-1.7279,-1.7331,-1.7317,-1.7336,-1.7336,-1.7348,-1.7347,-1.74,-1.7356,-1.7356,-1.7356,-1.7356,0,-1.7025,-1.7057,-1.7079,-1.7102,-1.7137,-1.7149,-1.7183,-1.7196,-1.7216,-1.7241,-1.7244,-1.7266,-1.7278,-1.7301,-1.7309,-1.7341,-1.7347,-1.7353,-1.7354,-1.7353,-1.7352,-1.7362,-1.7359,-1.7357,-1.7357,-1.7357,-1.7356,0,-1.706,-1.7076,-1.7117,-1.7145,-1.7153,-1.7178,-1.7201,-1.7222,-1.7234,-1.7264,-1.7272,-1.729,-1.7317,-1.7329,-1.7362,-1.7367,-1.7404,-1.7404,-1.7397,-1.7397,-1.7417,-1.7415,-1.7478,-1.7487,-1.7437,-1.7438,-1.7438,0,-1.7088,-1.7113,-1.7144,-1.7161,-1.7177,-1.7204,-1.7222,-1.7234,-1.7253,-1.7281,-1.7298,-1.7326,-1.735,-1.7393,-1.7407,-1.7433,-1.7433,-1.7453,-1.7436,-1.7434,-1.7433,-1.7431,-1.7433,-1.7456,-1.7457,-1.7457,-1.7458,0,-1.7135,-1.7142,-1.7169,-1.7199,-1.7221,-1.7244,-1.7266,-1.728,-1.7295,-1.7315,-1.7344,-1.7362,-1.7396,-1.7424,-1.745,-1.7462,-1.7462,-1.7463,-1.7468,-1.7467,-1.7462,-1.7465,-1.7405,-1.7461,-1.7461,-1.7461,-1.746,-1.746,-1.7168,-1.7189,-1.7215,-1.7245,-1.7263,-1.7284,-1.7306,-1.732,-1.7345,-1.7376,-1.738,-1.7411,-1.7432,-1.7467,-1.748,-1.7503,-1.7498,-1.7506,-1.7509,-1.7511,-1.7512,-1.7458,-1.7508,-1.7508,-1.7508,-1.7508,-1.7507,0,-1.7215,-1.7232,-1.7259,-1.7291,-1.7314,-1.7313,-1.7338,-1.7356,-1.7384,-1.7405,-1.7428,-1.746,-1.7486,-1.7503,-1.7528,-1.7543,-1.7544,-1.755,-1.7549,-1.7551,-1.7515,-1.7508,-1.7549,-1.7549,-1.7549,-1.7549,-1.7549,-1.7549,-1.7243,-1.728,-1.7289,-1.7334,-1.735,-1.7382,-1.7396,-1.7414,-1.7431,-1.7468,-1.749,-1.7501,-1.7519,-1.7546,-1.757,-1.7574,-1.7583,-1.7589,-1.7592,-1.7558,-1.7554,-1.755,-1.7543,-1.7591,-1.7591,-1.7627,-1.7627,-1.7627]}]]